Location: Earls Croome
(52.0667°N, 2.2000°W)
Time: 16:25:50
(UTC+00:00)

Meteor 1-31 Rocket - Pass Details

Date: 17 November 2019
Orbit: 521 x 547 km, 97.6° (Epoch: 06 December)

Event Time Altitude Azimuth Distance (km) Brightness Sun altitude
Rises 05:28:15 0° 9° (N) 2,677 6.4 -18.7°
Reaches altitude 10° 05:30:25 10° 3° (N) 1,786 5.4 -18.3°
Maximum altitude 05:34:05 44° 291° (WNW) 742 3.0 -17.8°
Enters shadow 05:34:49 39° 258° (WSW) 808 3.2 -17.7°
